FW5864 Weather Reports


time (UTC)temp
C
wind
direction
speed
KPH
gust
KPH
rain 1hr
cm
rain 24hr
cm
rain mn
cm
humidity
%
barometer
mb
20260906141011 22 106 1.6 9.7 0.00 0.00 0.00 86 1018.5
20260906140511 22 110 4.8 9.7 0.00 0.00 0.00 86 1018.5
20260906140011 22 113 3.2 12.9 0.00 0.00 0.00 87 1018.4
20260906135511 22 181 3.2 12.9 0.00 0.00 0.00 87 1018.6
20260906135011 22 80 4.8 9.7 0.00 0.00 0.00 87 1018.6
20260906134511 22 80 3.2 8.0 0.00 0.00 0.00 87 1018.5
20260906133511 22 98 1.6 8.0 0.00 0.00 0.00 87 1018.6
20260906133011 22 94 4.8 6.4 0.00 0.00 0.00 88 1018.6
20260906132511 22 15 1.6 8.0 0.00 0.00 0.00 88 1018.7
20260906132011 22 91 3.2 8.0 0.00 0.00 0.00 89 1018.5
20260906131511 22 95 3.2 4.8 0.00 0.00 0.00 89 1018.5
20260906131011 22 103 1.6 6.4 0.00 0.00 0.00 89 1018.5
20260906130510 21 95 1.6 6.4 0.00 0.00 0.00 89 1018.6
20260906125511 21 59 0.0 4.8 0.00 0.00 0.00 89 1018.7
20260906125010 21 59 0.0 4.8 0.00 0.00 0.00 90 1018.7
20260906124511 21 61 0.0 3.2 0.00 0.00 0.00 90 1018.6
20260906124011 21 63 1.6 3.2 0.00 0.00 0.00 90 1018.7
20260906123510 21 89 1.6 3.2 0.00 0.00 0.00 90 1018.5
20260906123010 21 91 1.6 3.2 0.00 0.00 0.00 90 1018.5
20260906122510 21 113 0.0 3.2 0.00 0.00 0.00 90 1018.5
20260906122010 21 57 0.0 3.2 0.00 0.00 0.00 90 1018.4
20260906121010 21 68 0.0 3.2 0.00 0.00 0.00 90 1018.2
20260906120510 21 98 1.6 3.2 0.00 0.00 0.00 90 1018.1
20260906115510 21 55 1.6 3.2 0.00 0.00 0.00 90 1018.1
20260906114510 21 28 1.6 3.2 0.00 0.00 0.00 91 1018.0
20260906113010 21 360 1.6 3.2 0.00 0.00 0.00 91 1017.7
20260906112510 21 52 1.6 4.8 0.00 0.00 0.00 91 1017.6
20260906112010 21 38 0.0 4.8 0.00 0.00 0.00 91 1017.5
20260906111510 21 63 1.6 3.2 0.00 0.00 0.00 91 1017.4
20260906111010 21 17 1.6 3.2 0.00 0.00 0.00 91 1017.3
20260906110509 21 73 0.0 3.2 0.00 0.00 0.00 91 1017.3
20260906110010 21 61 0.0 3.2 0.00 0.00 0.00 91 1017.3
20260906104509 21 46 1.6 1.6 0.00 0.00 0.00 91 1017.2
20260906104010 21 73 0.0 3.2 0.00 0.00 0.00 91 1017.2
20260906103510 21 19 1.6 3.2 0.00 0.00 0.00 91 1017.2
20260906103009 21 19 0.0 1.6 0.00 0.00 0.00 91 1017.1
20260906102509 21 19 0.0 1.6 0.00 0.00 0.00 91 1017.1
20260906102010 21 19 1.6 3.2 0.00 0.00 0.00 90 1017.1
20260906101510 21 19 0.0 3.2 0.00 0.00 0.00 90 1017.0
20260906101009 20 19 3.2 3.2 0.00 0.00 0.00 90 1017.1
20260906095509 20 73 0.0 1.6 0.00 0.00 0.00 90 1017.0
20260906095009 21 73 0.0 1.6 0.00 0.00 0.00 90 1017.0
20260906094509 21 73 0.0 1.6 0.00 0.00 0.00 90 1016.9
20260906094009 21 73 0.0 0.0 0.00 0.00 0.00 90 1016.9
20260906093509 21 73 0.0 0.0 0.00 0.00 0.00 89 1016.8
20260906093009 21 73 0.0 1.6 0.00 0.00 0.00 89 1016.8
20260906092509 21 73 0.0 1.6 0.00 0.00 0.00 89 1016.8
20260906092010 21 80 1.6 1.6 0.00 0.00 0.00 89 1016.9
20260906091509 21 80 0.0 0.0 0.00 0.00 0.00 89 1016.8
20260906090509 21 80 0.0 1.6 0.00 0.00 0.00 89 1017.0
20260906090009 21 80 0.0 1.6 0.00 0.00 0.00 89 1016.9
20260906085509 21 86 0.0 1.6 0.00 0.00 0.00 89 1016.9
20260906085009 21 57 0.0 1.6 0.00 0.00 0.00 89 1016.9
20260906084509 21 61 0.0 1.6 0.00 0.00 0.00 89 1017.0
20260906084010 21 86 0.0 1.6 0.00 0.00 0.00 89 1017.0
20260906083508 21 86 1.6 1.6 0.00 0.00 0.00 88 1017.0
20260906083009 21 86 0.0 1.6 0.00 0.00 0.00 88 1017.1
20260906082509 21 86 0.0 1.6 0.00 0.00 0.00 88 1017.1
20260906082009 21 86 0.0 1.6 0.00 0.00 0.00 88 1017.1
20260906081509 21 86 0.0 1.6 0.00 0.00 0.00 88 1017.0
20260906080508 21 86 0.0 1.6 0.00 0.00 0.00 88 1017.1
20260906075508 21 75 1.6 3.2 0.00 0.00 0.00 88 1016.9
20260906075008 21 81 0.0 3.2 0.00 0.00 0.00 88 1017.1
20260906074508 21 24 1.6 3.2 0.00 0.00 0.00 88 1017.1
20260906074008 21 86 0.0 3.2 0.00 0.00 0.00 88 1017.1
20260906073508 21 86 0.0 4.8 0.00 0.00 0.00 88 1017.0
20260906073008 21 81 0.0 4.8 0.00 0.00 0.00 87 1017.1
20260906072508 22 97 1.6 4.8 0.00 0.00 0.00 87 1017.2
20260906072008 22 94 4.8 4.8 0.00 0.00 0.00 87 1017.2
20260906071509 22 88 3.2 4.8 0.00 0.00 0.00 88 1017.3
20260906071008 22 57 0.0 4.8 0.00 0.00 0.00 88 1017.2
20260906070508 22 103 0.0 4.8 0.00 0.00 0.00 88 1017.1
20260906070008 22 94 3.2 4.8 0.00 0.00 0.00 88 1017.2
20260906065508 22 108 4.8 4.8 0.00 0.00 0.00 87 1017.4
20260906064508 22 337 3.2 6.4 0.00 0.00 0.00 87 1017.3
20260906063508 22 95 4.8 12.9 0.00 0.00 0.00 88 1017.2
20260906063008 22 85 1.6 12.9 0.00 0.00 0.00 88 1017.3
20260906062508 22 78 1.6 3.2 0.00 0.00 0.00 88 1017.5
20260906062008 22 68 0.0 3.2 0.00 0.00 0.00 88 1017.4
20260906061507 22 100 3.2 3.2 0.00 0.00 0.00 88 1017.3
20260906061008 22 92 1.6 3.2 0.00 0.00 0.00 88 1017.4
20260906060507 22 88 0.0 3.2 0.00 0.00 0.00 88 1017.4
20260906060008 22 87 1.6 4.8 0.00 0.00 0.00 88 1017.4
20260906055507 22 87 1.6 6.4 0.00 0.00 0.00 88 1017.2
20260906055007 22 106 1.6 6.4 0.00 0.00 0.00 88 1017.2
20260906054507 22 85 3.2 6.4 0.00 0.00 0.00 88 1017.1
20260906053507 22 96 1.6 6.4 0.00 0.00 0.00 88 1016.9
20260906053007 22 67 1.6 4.8 0.00 0.00 0.00 88 1016.7
20260906052507 22 107 3.2 4.8 0.00 0.00 0.00 88 1016.8
20260906052007 22 11 3.2 3.2 0.00 0.00 0.00 88 1016.8
20260906051507 22 57 1.6 3.2 0.00 0.00 0.00 88 1016.7
20260906050507 22 79 0.0 1.6 0.00 0.00 0.00 88 1016.7
20260906050007 22 59 0.0 1.6 0.00 0.00 0.00 88 1016.6
20260906045507 22 62 0.0 1.6 0.00 0.00 0.00 88 1016.5
20260906044507 22 55 1.6 1.6 0.00 0.00 0.00 88 1016.5
20260906043507 22 55 0.0 1.6 0.00 0.00 0.00 87 1016.4
20260906043007 23 55 0.0 1.6 0.00 0.00 0.00 87 1016.3
20260906042507 23 55 0.0 1.6 0.00 0.00 0.00 87 1016.2
20260906042006 23 55 0.0 1.6 0.00 0.00 0.00 87 1016.1
20260906041506 23 55 0.0 1.6 0.00 0.00 0.00 87 1016.1
20260906040507 23 62 0.0 1.6 0.00 0.00 0.00 87 1015.9
20260906040006 23 62 0.0 1.6 0.00 0.00 0.00 86 1015.9
20260906035006 23 62 0.0 1.6 0.00 0.00 0.00 86 1015.8
20260906034506 23 61 0.0 1.6 0.00 0.00 0.00 86 1015.8
20260906034006 23 61 0.0 1.6 0.00 0.00 0.00 86 1015.8
20260906033506 23 61 0.0 1.6 0.00 0.00 0.00 86 1015.7
20260906032506 23 64 0.0 1.6 0.00 0.00 0.00 85 1015.7
20260906031506 23 69 0.0 1.6 0.00 0.00 0.00 84 1015.6
20260906031007 24 69 0.0 1.6 0.00 0.00 0.00 84 1015.7
20260906030506 24 69 0.0 1.6 0.00 0.00 0.00 84 1015.6
20260906025506 24 69 0.0 3.2 0.00 0.00 0.00 83 1015.6
20260906024506 25 95 1.6 1.6 0.00 0.00 0.00 83 1015.5
20260906024006 25 106 1.6 3.2 0.00 0.00 0.00 82 1015.3
20260906023006 25 73 3.2 4.8 0.00 0.00 0.00 82 1015.3
20260906022005 25 99 1.6 4.8 0.00 0.00 0.00 82 1015.2
20260906021505 25 108 3.2 4.8 0.00 0.00 0.00 82 1015.3
20260906021006 25 51 1.6 6.4 0.00 0.00 0.00 82 1015.3
20260906020506 26 23 4.8 6.4 0.00 0.00 0.00 82 1015.3
20260906020005 26 82 1.6 4.8 0.00 0.00 0.00 82 1015.1
20260906015505 26 348 3.2 3.2 0.00 0.00 0.00 82 1014.9
20260906014505 26 25 3.2 3.2 0.00 0.00 0.00 82 1015.0
20260906014005 26 41 1.6 3.2 0.00 0.00 0.00 81 1014.9
20260906013005 27 100 1.6 4.8 0.00 0.00 0.00 80 1014.7
20260906012505 27 79 1.6 3.2 0.00 0.00 0.00 80 1014.6
20260906011505 27 82 1.6 4.8 0.00 0.00 0.00 80 1014.6
20260906011005 27 84 1.6 4.8 0.00 0.00 0.00 79 1014.5
20260906010505 27 89 3.2 4.8 0.00 0.00 0.00 79 1014.4
20260906010005 27 40 1.6 6.4 0.00 0.00 0.00 79 1014.4
20260906005505 28 55 1.6 6.4 0.00 0.00 0.00 78 1014.3
20260906004505 28 78 0.0 4.8 0.00 0.00 0.00 79 1014.2
20260906004005 28 104 1.6 4.8 0.00 0.00 0.00 78 1014.3
20260906002005 29 96 1.6 4.8 0.00 0.00 0.00 77 1014.1
20260906001505 29 51 1.6 1.6 0.00 0.00 0.00 76 1014.1
20260906000505 30 17 1.6 3.2 0.00 0.00 0.00 74 1014.1
20260906000006 30 38 1.6 3.2 0.00 0.00 0.00 74 1014.1
20260905235505 30 56 1.6 4.8 0.00 0.00 0.00 73 1013.9
20260905235005 31 84 0.0 4.8 0.00 0.00 0.00 72 1014.0
20260905234505 31 80 1.6 8.0 0.00 0.00 0.00 71 1014.0
20260905234005 31 71 1.6 8.0 0.00 0.00 0.00 71 1014.0
20260905233504 31 44 0.0 4.8 0.00 0.00 0.00 71 1014.0
20260905233004 31 15 1.6 3.2 0.00 0.00 0.00 70 1013.8
20260905232504 32 26 3.2 8.0 0.00 0.00 0.00 70 1013.9
20260905232005 32 53 0.0 8.0 0.00 0.00 0.00 70 1013.8
20260905231505 32 42 1.6 4.8 0.00 0.00 0.00 69 1013.7
20260905231004 32 194 1.6 8.0 0.00 0.00 0.00 68 1013.6
20260905230505 32 149 1.6 8.0 0.00 0.00 0.00 67 1013.7
20260905230005 33 62 1.6 8.0 0.00 0.00 0.00 68 1013.8
20260905225505 33 5 1.6 9.7 0.00 0.00 0.00 67 1013.7
20260905225004 33 51 6.4 9.7 0.00 0.00 0.00 66 1013.6
20260905224504 33 32 1.6 6.4 0.00 0.00 0.00 66 1013.7
20260905224004 33 355 6.4 6.4 0.00 0.00 0.00 65 1013.6
20260905223504 33 355 4.8 6.4 0.00 0.00 0.00 66 1013.6
20260905223004 33 10 1.6 4.8 0.00 0.00 0.00 65 1013.7
20260905222504 33 15 1.6 6.4 0.00 0.00 0.00 65 1013.7
20260905222004 33 16 3.2 6.4 0.00 0.00 0.00 66 1013.7
20260905221504 34 25 0.0 6.4 0.00 0.00 0.00 64 1013.7
20260905221004 34 22 1.6 6.4 0.00 0.00 0.00 67 1013.7
20260905220504 33 5 3.2 6.4 0.00 0.00 0.00 64 1013.7
20260905215504 33 19 4.8 8.0 0.00 0.00 0.00 68 1013.7
20260905215005 33 360 3.2 6.4 0.00 0.00 0.00 66 1013.9
20260905214504 33 9 1.6 3.2 0.00 0.00 0.00 71 1013.8
20260905214003 33 24 0.0 3.2 0.00 0.00 0.00 68 1013.8
20260905213504 33 351 0.0 6.4 0.00 0.00 0.00 67 1013.8
20260905213003 33 300 3.2 8.0 0.00 0.00 0.00 67 1013.9
20260905212504 33 296 3.2 9.7 0.00 0.00 0.00 65 1013.8
20260905212003 34 329 1.6 9.7 0.00 0.00 0.00 65 1013.8
20260905211504 34 38 1.6 12.9 0.00 0.00 0.00 67 1013.9
20260905211004 34 330 4.8 12.9 0.00 0.00 0.00 65 1014.0
20260905210503 34 34 3.2 6.4 0.00 0.00 0.00 66 1014.1
20260905210004 34 320 3.2 6.4 0.00 0.00 0.00 66 1014.1
20260905205503 34 26 1.6 4.8 0.00 0.00 0.00 69 1014.1
20260905204504 33 306 1.6 4.8 0.00 0.00 0.00 69 1014.0
20260905203003 33 348 1.6 8.0 0.00 0.00 0.00 68 1014.0
20260905202503 33 24 3.2 6.4 0.00 0.00 0.00 70 1014.1
20260905202003 33 54 1.6 4.8 0.00 0.00 0.00 70 1014.2
20260905201503 33 101 1.6 6.4 0.00 0.00 0.00 69 1014.2
20260905201003 33 347 3.2 6.4 0.00 0.00 0.00 67 1014.1
20260905200503 33 24 1.6 6.4 0.00 0.00 0.00 69 1014.3
20260905200003 33 32 3.2 6.4 0.00 0.00 0.00 69 1014.3
20260905195503 33 355 1.6 9.7 0.00 0.00 0.00 67 1014.3
20260905195003 33 35 6.4 9.7 0.00 0.00 0.00 67 1014.3
20260905194503 33 37 3.2 8.0 0.00 0.00 0.00 67 1014.3
20260905194003 33 117 1.6 8.0 0.00 0.00 0.00 65 1014.3
20260905193502 33 344 1.6 11.3 0.00 0.00 0.00 66 1014.4
20260905193003 33 5 1.6 11.3 0.00 0.00 0.00 67 1014.4
20260905192502 33 21 6.4 6.4 0.00 0.00 0.00 67 1014.5
20260905192002 33 343 0.0 6.4 0.00 0.00 0.00 66 1014.5
20260905191502 33 24 1.6 9.7 0.00 0.00 0.00 67 1014.5
20260905190002 34 54 1.6 6.4 0.00 0.00 0.00 67 1014.4
20260905185502 34 126 0.0 8.0 0.00 0.00 0.00 63 1014.3
20260905184502 34 9 3.2 9.7 0.00 0.00 0.00 67 1014.6
20260905183502 34 360 3.2 8.0 0.00 0.00 0.00 66 1014.7
20260905183002 34 327 3.2 6.4 0.00 0.00 0.00 66 1014.6
20260905182502 34 30 3.2 6.4 0.00 0.00 0.00 66 1014.7
20260905182002 34 110 0.0 4.8 0.00 0.00 0.00 66 1014.7
20260905181001 33 103 0.0 4.8 0.00 0.00 0.00 67 1014.7
20260905180502 33 91 3.2 4.8 0.00 0.00 0.00 67 1014.8
20260905175501 33 42 0.0 6.4 0.00 0.00 0.00 67 1014.9
20260905175002 33 91 1.6 6.4 0.00 0.00 0.00 66 1014.9
20260905174502 33 9 1.6 6.4 0.00 0.00 0.00 68 1015.1
20260905174003 33 63 1.6 9.7 0.00 0.00 0.00 70 1015.0
20260905173502 33 31 1.6 9.7 0.00 0.00 0.00 69 1015.1
20260905172501 33 20 1.6 4.8 0.00 0.00 0.00 70 1015.1
20260905172001 32 90 1.6 3.2 0.00 0.00 0.00 69 1015.2
20260905171501 32 5 1.6 9.7 0.00 0.00 0.00 71 1015.1
20260905171001 32 80 0.0 9.7 0.00 0.00 0.00 69 1015.3
20260905170501 32 19 1.6 4.8 0.00 0.00 0.00 71 1015.2
20260905170001 32 82 0.0 4.8 0.00 0.00 0.00 71 1015.2
20260905165501 32 101 0.0 3.2 0.00 0.00 0.00 69 1015.3
20260905165001 32 123 1.6 6.4 0.00 0.00 0.00 72 1015.3
20260905164501 32 34 1.6 6.4 0.00 0.00 0.00 70 1015.3
20260905164002 31 71 1.6 6.4 0.00 0.00 0.00 70 1015.2
20260905163501 31 5 1.6 4.8 0.00 0.00 0.00 70 1015.2
20260905163001 31 67 1.6 6.4 0.00 0.00 0.00 71 1015.2
20260905162501 32 24 1.6 8.0 0.00 0.00 0.00 71 1015.2
20260905162001 31 360 3.2 8.0 0.00 0.00 0.00 72 1015.2
20260905161501 31 310 1.6 9.7 0.00 0.00 0.00 70 1015.3
20260905161000 31 56 1.6 12.9 0.00 0.00 0.00 71 1015.2
20260905160501 31 28 6.4 12.9 0.00 0.00 0.00 68 1015.3
20260905160001 31 5 6.4 11.3 0.00 0.00 0.00 72 1015.2
20260905155501 31 343 6.4 11.3 0.00 0.00 0.00 72 1015.2
20260905155001 31 285 1.6 9.7 0.00 0.00 0.00 70 1015.3
20260905154002 31 284 1.6 11.3 0.00 0.00 0.00 71 1015.1
20260905153501 31 331 3.2 11.3 0.00 0.00 0.00 73 1015.2
20260905153000 31 28 0.0 11.3 0.00 0.00 0.00 74 1015.2
20260905152500 30 355 1.6 6.4 0.00 0.00 0.00 71 1015.0
20260905152000 30 320 1.6 6.4 0.00 0.00 0.00 73 1015.0
20260905151000 30 24 3.2 9.7 0.00 0.00 0.00 72 1014.8
20260905150000 30 342 1.6 8.0 0.00 0.00 0.00 75 1014.8
20260905145500 30 314 1.6 4.8 0.00 0.00 0.00 76 1014.7
20260905145000 30 310 3.2 9.7 0.00 0.00 0.00 78 1014.7
20260905144500 29 305 1.6 9.7 0.00 0.00 0.00 76 1014.7
20260905144000 29 9 3.2 8.0 0.00 0.00 0.00 76 1014.7
20260905143500 28 300 3.2 11.3 0.00 0.00 0.00 78 1014.5
20260905143001 28 329 4.8 14.5 0.00 0.00 0.00 79 1014.5
20260905142500 28 302 8.0 14.5 0.00 0.00 0.00 79 1014.3
20260905142000 28 279 4.8 12.9 0.00 0.00 0.00 79 1014.4
20260905141500 28 286 6.4 11.3 0.00 0.00 0.00 82 1014.2